RYR707 LOWW-LEPA

Flight info

Callsign RYR707
Flight time 1h 53m
Altitude 38000
Route OSPEN DCT ABRUK DCT SETAL DCT DETSA/N0438F370 DCT PIDAD DCT TALEP DCT RARQU DCT BALEN UT250 RIXOT
Aircraft A320/M-SDE3FGHIRWY/LB1

Departure

Time 2026-04-22 09:07
Airport Vienna International Airport (LOWW)

Arrival

Time 2026-04-22 11:01
Airport Palma de Mallorca Airport (LEPA)
Time Latitude Longitude Altitude Speed Heading
2026-04-22 08:36 48.11926 16.55633 621 ft 0 kts 26°
2026-04-22 08:38 48.11926 16.55632 610 ft 0 kts 26°
2026-04-22 08:50 48.11922 16.55630 609 ft 2 kts 27°
2026-04-22 08:51 48.11905 16.55616 627 ft 3 kts 35°
2026-04-22 08:51 48.11890 16.55597 625 ft 3 kts 46°
2026-04-22 08:51 48.11877 16.55574 625 ft 3 kts 62°
2026-04-22 08:51 48.11869 16.55547 618 ft 3 kts 88°
2026-04-22 08:52 48.11871 16.55526 619 ft 1 kts 116°
2026-04-22 08:52 48.11871 16.55525 619 ft 0 kts 116°
2026-04-22 08:54 48.11869 16.55532 610 ft 3 kts 116°
2026-04-22 08:55 48.11848 16.55595 611 ft 10 kts 116°
2026-04-22 08:55 48.11817 16.55690 623 ft 13 kts 116°
2026-04-22 08:55 48.11771 16.55833 612 ft 16 kts 115°
2026-04-22 08:55 48.11727 16.55971 621 ft 14 kts 115°
2026-04-22 08:56 48.11688 16.56094 621 ft 12 kts 116°
2026-04-22 08:56 48.11651 16.56204 614 ft 11 kts 117°
2026-04-22 08:56 48.11618 16.56301 614 ft 11 kts 117°
2026-04-22 08:56 48.11580 16.56411 613 ft 13 kts 116°
2026-04-22 08:57 48.11537 16.56548 616 ft 16 kts 115°
2026-04-22 08:57 48.11484 16.56715 620 ft 20 kts 115°
2026-04-22 08:57 48.11420 16.56908 617 ft 20 kts 117°
2026-04-22 08:57 48.11360 16.57090 612 ft 18 kts 115°
2026-04-22 08:58 48.11307 16.57255 614 ft 17 kts 115°
2026-04-22 08:58 48.11260 16.57403 618 ft 15 kts 116°
2026-04-22 08:58 48.11217 16.57535 613 ft 13 kts 116°
2026-04-22 08:58 48.11184 16.57636 616 ft 9 kts 116°
2026-04-22 08:59 48.11159 16.57710 613 ft 7 kts 121°
2026-04-22 08:59 48.11124 16.57756 617 ft 6 kts 151°
2026-04-22 08:59 48.11089 16.57775 613 ft 5 kts 165°
2026-04-22 08:59 48.11052 16.57789 617 ft 5 kts 164°
2026-04-22 09:00 48.11020 16.57803 613 ft 5 kts 164°
2026-04-22 09:00 48.10964 16.57827 619 ft 11 kts 164°
2026-04-22 09:00 48.10881 16.57862 617 ft 12 kts 164°
2026-04-22 09:00 48.10804 16.57895 623 ft 11 kts 164°
2026-04-22 09:01 48.10735 16.57924 614 ft 10 kts 164°
2026-04-22 09:01 48.10674 16.57950 613 ft 9 kts 164°
2026-04-22 09:01 48.10619 16.57974 614 ft 10 kts 164°
2026-04-22 09:01 48.10513 16.58020 621 ft 18 kts 162°
2026-04-22 09:02 48.10386 16.58077 610 ft 19 kts 165°
2026-04-22 09:02 48.10260 16.58128 616 ft 20 kts 165°
2026-04-22 09:02 48.10133 16.58178 621 ft 18 kts 165°
2026-04-22 09:02 48.10017 16.58227 621 ft 18 kts 163°
2026-04-22 09:03 48.09876 16.58288 612 ft 22 kts 163°
2026-04-22 09:03 48.09731 16.58351 614 ft 21 kts 164°
2026-04-22 09:03 48.09599 16.58407 620 ft 19 kts 164°
2026-04-22 09:03 48.09476 16.58459 614 ft 18 kts 164°
2026-04-22 09:04 48.09357 16.58509 614 ft 17 kts 164°
2026-04-22 09:04 48.09244 16.58557 610 ft 17 kts 164°
2026-04-22 09:04 48.09142 16.58600 622 ft 15 kts 164°
2026-04-22 09:04 48.09043 16.58642 613 ft 14 kts 164°
2026-04-22 09:05 48.08951 16.58681 621 ft 14 kts 164°
2026-04-22 09:05 48.08868 16.58723 612 ft 12 kts 154°
2026-04-22 09:05 48.08810 16.58799 613 ft 11 kts 123°
2026-04-22 09:05 48.08791 16.58897 614 ft 9 kts 95°
2026-04-22 09:06 48.08803 16.58987 620 ft 9 kts 65°
2026-04-22 09:06 48.08849 16.59064 614 ft 11 kts 40°
2026-04-22 09:06 48.08905 16.59114 614 ft 5 kts
2026-04-22 09:06 48.08938 16.59104 612 ft 0 kts 344°
2026-04-22 09:07 48.09160 16.59009 619 ft 70 kts 344°
2026-04-22 09:07 48.09820 16.58731 617 ft 128 kts 345°
2026-04-22 09:07 48.10811 16.58313 815 ft 154 kts 343°
2026-04-22 09:07 48.11839 16.57859 1538 ft 160 kts 337°
2026-04-22 09:08 48.12634 16.56628 2179 ft 177 kts 291°
2026-04-22 09:08 48.12629 16.54849 3223 ft 172 kts 253°
2026-04-22 09:08 48.11994 16.53271 3964 ft 185 kts 235°
2026-04-22 09:08 48.11131 16.51793 4626 ft 190 kts 229°
2026-04-22 09:09 48.10160 16.50441 5318 ft 192 kts 225°
2026-04-22 09:09 48.09159 16.49095 5944 ft 196 kts 230°
2026-04-22 09:09 48.08348 16.47450 6520 ft 197 kts 246°
2026-04-22 09:09 48.07779 16.45595 7154 ft 195 kts 252°
2026-04-22 09:10 48.07284 16.43707 7766 ft 196 kts 253°
2026-04-22 09:10 48.06793 16.41811 8335 ft 197 kts 252°
2026-04-22 09:10 48.06273 16.39810 8598 ft 219 kts 251°
2026-04-22 09:10 48.05672 16.37530 8674 ft 251 kts 251°
2026-04-22 09:11 48.04999 16.35051 9343 ft 262 kts 250°
2026-04-22 09:11 48.04287 16.32500 10143 ft 269 kts 249°
2026-04-22 09:11 48.03542 16.29900 10898 ft 274 kts 249°
2026-04-22 09:11 48.02799 16.27262 11664 ft 281 kts 249°
2026-04-22 09:12 48.02013 16.24452 11972 ft 305 kts 249°
2026-04-22 09:12 48.01159 16.21416 12263 ft 329 kts 249°
2026-04-22 09:12 48.00247 16.18186 12731 ft 343 kts 249°
2026-04-22 09:12 47.99307 16.14873 13462 ft 349 kts 248°
2026-04-22 09:13 47.98350 16.11517 14210 ft 353 kts 248°
2026-04-22 09:13 47.97379 16.08121 14888 ft 358 kts 248°
2026-04-22 09:13 47.96396 16.04692 15597 ft 361 kts 248°
2026-04-22 09:13 47.95404 16.01231 16286 ft 365 kts 248°
2026-04-22 09:14 47.94407 15.97740 16999 ft 368 kts 249°
2026-04-22 09:14 47.93414 15.94261 17689 ft 371 kts 249°
2026-04-22 09:14 47.92397 15.90707 18403 ft 374 kts 249°
2026-04-22 09:14 47.91369 15.87123 19024 ft 378 kts 249°
2026-04-22 09:15 47.90328 15.83513 19625 ft 381 kts 249°
2026-04-22 09:15 47.89275 15.79874 20233 ft 384 kts 248°
2026-04-22 09:15 47.88216 15.76214 20851 ft 387 kts 249°
2026-04-22 09:15 47.87146 15.72523 21454 ft 390 kts 249°
2026-04-22 09:16 47.86068 15.68802 22047 ft 393 kts 249°
2026-04-22 09:16 47.84981 15.65053 22658 ft 396 kts 249°
2026-04-22 09:16 47.83886 15.61274 23263 ft 399 kts 249°
2026-04-22 09:16 47.82782 15.57468 23854 ft 402 kts 249°
2026-04-22 09:17 47.81668 15.53634 24349 ft 405 kts 249°
2026-04-22 09:17 47.80544 15.49773 24843 ft 408 kts 249°
2026-04-22 09:17 47.79414 15.45898 25326 ft 411 kts 249°
2026-04-22 09:17 47.78273 15.41992 25812 ft 413 kts 249°
2026-04-22 09:18 47.77125 15.38064 26270 ft 415 kts 249°
2026-04-22 09:18 47.75965 15.34117 26719 ft 418 kts 248°
2026-04-22 09:18 47.74795 15.30152 27180 ft 420 kts 248°
2026-04-22 09:18 47.73616 15.26171 27663 ft 420 kts 248°
2026-04-22 09:19 47.72467 15.22302 28917 ft 399 kts 248°
2026-04-22 09:19 47.71373 15.18625 30274 ft 379 kts 249°
2026-04-22 09:19 47.70328 15.15111 31168 ft 368 kts 249°
2026-04-22 09:19 47.69302 15.11649 31691 ft 366 kts 249°
2026-04-22 09:20 47.68276 15.08192 32089 ft 367 kts 249°
2026-04-22 09:20 47.67247 15.04718 32438 ft 369 kts 249°
2026-04-22 09:20 47.66225 15.01275 32799 ft 370 kts 249°
2026-04-22 09:20 47.65185 14.97767 33151 ft 373 kts 249°
2026-04-22 09:21 47.64118 14.94189 33521 ft 375 kts 249°
2026-04-22 09:21 47.63073 14.90694 33851 ft 378 kts 250°
2026-04-22 09:21 47.62004 14.87121 34187 ft 380 kts 250°
2026-04-22 09:21 47.60929 14.83527 34451 ft 382 kts 250°
2026-04-22 09:22 47.59845 14.79917 34709 ft 385 kts 250°
2026-04-22 09:22 47.58754 14.76287 34948 ft 387 kts 250°
2026-04-22 09:22 47.57658 14.72640 35179 ft 389 kts 250°
2026-04-22 09:22 47.56554 14.68971 35410 ft 391 kts 250°
2026-04-22 09:23 47.55443 14.65290 35618 ft 393 kts 250°
2026-04-22 09:23 47.54322 14.61585 35834 ft 395 kts 250°
2026-04-22 09:23 47.53193 14.57867 36046 ft 397 kts 249°
2026-04-22 09:23 47.52059 14.54134 36268 ft 399 kts 249°
2026-04-22 09:24 47.50917 14.50380 36447 ft 401 kts 249°
2026-04-22 09:24 47.49768 14.46608 36638 ft 403 kts 249°
2026-04-22 09:24 47.48611 14.42818 36842 ft 405 kts 249°
2026-04-22 09:24 47.47452 14.39027 37046 ft 406 kts 249°
2026-04-22 09:25 47.46283 14.35214 37229 ft 408 kts 249°
2026-04-22 09:25 47.45037 14.31442 37482 ft 411 kts 240°
2026-04-22 09:25 47.43258 14.28117 37750 ft 414 kts 232°
2026-04-22 09:25 47.41331 14.24956 37961 ft 414 kts 232°
2026-04-22 09:26 47.39388 14.21800 38146 ft 416 kts 231°
2026-04-22 09:26 47.37434 14.18635 38263 ft 419 kts 231°
2026-04-22 09:26 47.35458 14.15440 38284 ft 424 kts 231°
2026-04-22 09:27 47.31458 14.08990 38283 ft 434 kts 231°
2026-04-22 09:27 47.27351 14.02371 38277 ft 439 kts 231°
2026-04-22 09:28 47.23222 13.95723 38272 ft 440 kts 232°
2026-04-22 09:28 47.19097 13.89084 38269 ft 440 kts 232°
2026-04-22 09:29 47.14957 13.82459 38262 ft 440 kts 231°
2026-04-22 09:29 47.10803 13.75842 38258 ft 442 kts 231°
2026-04-22 09:30 47.06588 13.69122 38254 ft 452 kts 232°
2026-04-22 09:30 47.02289 13.62277 38244 ft 459 kts 231°
2026-04-22 09:31 46.97923 13.55362 38240 ft 464 kts 231°
2026-04-22 09:31 46.93513 13.48400 38229 ft 468 kts 231°
2026-04-22 09:32 46.89071 13.41399 38222 ft 471 kts 231°
2026-04-22 09:32 46.84644 13.34422 38217 ft 472 kts 231°
2026-04-22 09:33 46.80170 13.27393 38206 ft 472 kts 231°
2026-04-22 09:33 46.75687 13.20384 38205 ft 473 kts 231°
2026-04-22 09:34 46.71189 13.13374 38215 ft 474 kts 231°
2026-04-22 09:34 46.66685 13.06382 38206 ft 473 kts 231°
2026-04-22 09:35 46.59938 12.95897 38195 ft 473 kts 232°
2026-04-22 09:35 46.55448 12.88929 38190 ft 472 kts 231°
2026-04-22 09:36 46.50955 12.81991 38183 ft 471 kts 231°
2026-04-22 09:36 46.46451 12.75079 38181 ft 471 kts 231°
2026-04-22 09:37 46.41949 12.68189 38176 ft 470 kts 231°
2026-04-22 09:37 46.37457 12.61322 38180 ft 469 kts 231°
2026-04-22 09:38 46.32972 12.54461 38190 ft 469 kts 232°
2026-04-22 09:38 46.28489 12.47632 38205 ft 467 kts 231°
2026-04-22 09:39 46.23980 12.40789 38157 ft 472 kts 231°
2026-04-22 09:39 46.19430 12.33894 38153 ft 475 kts 231°
2026-04-22 09:40 46.14894 12.27039 38157 ft 477 kts 231°
2026-04-22 09:40 46.10305 12.20114 38170 ft 478 kts 231°
2026-04-22 09:41 46.05696 12.13185 38178 ft 479 kts 231°
2026-04-22 09:41 46.01075 12.06266 38190 ft 480 kts 231°
2026-04-22 09:42 45.96449 11.99353 38199 ft 480 kts 231°
2026-04-22 09:42 45.91823 11.92455 38199 ft 479 kts 231°
2026-04-22 09:43 45.89528 11.89036 38581 ft 465 kts 231°
2026-04-22 09:43 45.87323 11.85781 39371 ft 447 kts 230°
2026-04-22 09:43 45.85169 11.82682 40088 ft 430 kts 230°
2026-04-22 09:43 45.83069 11.79603 40124 ft 432 kts 231°
2026-04-22 09:44 45.81024 11.76543 40575 ft 423 kts 231°
2026-04-22 09:44 45.78992 11.73477 40562 ft 425 kts 231°
2026-04-22 09:44 45.74900 11.67336 40702 ft 427 kts 231°
2026-04-22 09:45 45.70764 11.61214 40860 ft 428 kts 231°
2026-04-22 09:45 45.67303 11.56133 40980 ft 429 kts 230°
2026-04-22 09:46 45.63108 11.49992 39754 ft 445 kts 231°
2026-04-22 09:46 45.60815 11.46581 37413 ft 490 kts 232°
2026-04-22 09:46 45.58537 11.43207 38143 ft 457 kts 231°
2026-04-22 09:47 45.56346 11.40005 38606 ft 451 kts 231°
2026-04-22 09:47 45.54137 11.36818 38543 ft 453 kts 231°
2026-04-22 09:47 45.49705 11.30411 38543 ft 454 kts 231°
2026-04-22 09:48 45.45276 11.23982 38547 ft 454 kts 231°
2026-04-22 09:48 45.40853 11.17562 38550 ft 454 kts 231°
2026-04-22 09:49 45.36433 11.11156 38556 ft 453 kts 231°
2026-04-22 09:49 45.32019 11.04776 38559 ft 453 kts 231°
2026-04-22 09:50 45.27598 10.98411 38528 ft 452 kts 231°
2026-04-22 09:50 45.23179 10.92059 38536 ft 452 kts 231°
2026-04-22 09:51 45.18758 10.85724 38532 ft 452 kts 231°
2026-04-22 09:51 45.16587 10.82618 38156 ft 447 kts 231°
2026-04-22 09:51 45.14383 10.79514 38163 ft 447 kts 230°
2026-04-22 09:52 45.09820 10.73452 38163 ft 452 kts 229°
2026-04-22 09:52 45.05154 10.67466 38167 ft 453 kts 228°
2026-04-22 09:53 45.00504 10.61464 38172 ft 453 kts 229°
2026-04-22 09:53 44.95878 10.55425 38180 ft 453 kts 229°
2026-04-22 09:54 44.91258 10.49381 38188 ft 453 kts 229°
2026-04-22 09:54 44.86631 10.43356 38185 ft 453 kts 229°
2026-04-22 09:55 44.81992 10.37350 38192 ft 453 kts 229°
2026-04-22 09:55 44.77351 10.31353 38185 ft 453 kts 229°
2026-04-22 09:56 44.72705 10.25365 38194 ft 453 kts 229°
2026-04-22 09:56 44.68051 10.19392 38187 ft 453 kts 229°
2026-04-22 09:57 44.63400 10.13419 38173 ft 453 kts 229°
2026-04-22 09:57 44.58745 10.07452 38156 ft 453 kts 228°
2026-04-22 09:58 44.54083 10.01489 38130 ft 455 kts 229°
2026-04-22 09:58 44.49392 9.95514 38102 ft 458 kts 229°
2026-04-22 09:59 44.44696 9.89541 38087 ft 460 kts 229°
2026-04-22 09:59 44.39947 9.83513 38082 ft 462 kts 229°
2026-04-22 10:00 44.35176 9.77476 38073 ft 464 kts 229°
2026-04-22 10:00 44.30383 9.71424 38088 ft 465 kts 229°
2026-04-22 10:01 44.25573 9.65365 38107 ft 466 kts 229°
2026-04-22 10:01 44.20753 9.59313 38109 ft 466 kts 229°
2026-04-22 10:02 44.15929 9.53267 38109 ft 466 kts 229°
2026-04-22 10:02 44.11108 9.47231 38119 ft 466 kts 228°
2026-04-22 10:03 44.06282 9.41221 38120 ft 465 kts 228°
2026-04-22 10:03 44.01469 9.35226 38121 ft 464 kts 228°
2026-04-22 10:04 43.96677 9.29255 38124 ft 463 kts 228°
2026-04-22 10:04 43.91879 9.23300 38121 ft 462 kts 228°
2026-04-22 10:05 43.87097 9.17387 38122 ft 461 kts 228°
2026-04-22 10:05 43.82319 9.11480 38120 ft 460 kts 228°
2026-04-22 10:06 43.77548 9.05590 38118 ft 459 kts 228°
2026-04-22 10:06 43.72772 8.99727 38124 ft 459 kts 228°
2026-04-22 10:07 43.67997 8.93881 38121 ft 458 kts 228°
2026-04-22 10:07 43.63229 8.88045 38116 ft 458 kts 227°
2026-04-22 10:08 43.58463 8.82223 38115 ft 457 kts 227°
2026-04-22 10:08 43.53702 8.76426 38120 ft 457 kts 227°
2026-04-22 10:09 43.48967 8.70678 38116 ft 456 kts 227°
2026-04-22 10:09 43.44203 8.64903 38117 ft 456 kts 227°
2026-04-22 10:10 43.39444 8.59136 38112 ft 456 kts 227°
2026-04-22 10:10 43.34685 8.53382 38105 ft 455 kts 227°
2026-04-22 10:11 43.29923 8.47643 38102 ft 455 kts 227°
2026-04-22 10:11 43.25165 8.41924 38103 ft 455 kts 227°
2026-04-22 10:12 43.20400 8.36212 38098 ft 455 kts 227°
2026-04-22 10:12 43.15638 8.30507 38100 ft 454 kts 227°
2026-04-22 10:13 43.10876 8.24815 38097 ft 454 kts 227°
2026-04-22 10:13 43.06112 8.19141 38090 ft 454 kts 226°
2026-04-22 10:14 43.01346 8.13483 38082 ft 454 kts 226°
2026-04-22 10:14 42.96617 8.07868 38076 ft 453 kts 226°
2026-04-22 10:15 42.91868 8.02228 38071 ft 453 kts 226°
2026-04-22 10:15 42.87108 7.96598 38070 ft 453 kts 226°
2026-04-22 10:16 42.82337 7.90981 38070 ft 453 kts 226°
2026-04-22 10:16 42.77558 7.85374 38069 ft 453 kts 226°
2026-04-22 10:17 42.72786 7.79759 38068 ft 454 kts 226°
2026-04-22 10:17 42.68012 7.74141 38065 ft 454 kts 226°
2026-04-22 10:18 42.63222 7.68540 38068 ft 454 kts 226°
2026-04-22 10:18 42.58422 7.62949 38063 ft 455 kts 226°
2026-04-22 10:19 42.53617 7.57362 38066 ft 455 kts 226°
2026-04-22 10:19 42.48817 7.51783 38068 ft 455 kts 226°
2026-04-22 10:20 42.44008 7.46204 38067 ft 455 kts 226°
2026-04-22 10:20 42.39199 7.40631 38066 ft 455 kts 226°
2026-04-22 10:21 42.34391 7.35071 38069 ft 455 kts 226°
2026-04-22 10:21 42.29612 7.29570 38068 ft 454 kts 225°
2026-04-22 10:22 42.24801 7.24037 38068 ft 455 kts 225°
2026-04-22 10:22 42.19984 7.18504 38070 ft 454 kts 225°
2026-04-22 10:23 42.15167 7.12987 38068 ft 454 kts 225°
2026-04-22 10:23 42.10352 7.07487 38062 ft 453 kts 225°
2026-04-22 10:24 42.05552 7.02012 38063 ft 452 kts 225°
2026-04-22 10:24 42.00774 6.96552 38059 ft 450 kts 226°
2026-04-22 10:25 41.96145 6.90918 38060 ft 448 kts 228°
2026-04-22 10:25 41.91589 6.85211 38057 ft 447 kts 228°
2026-04-22 10:26 41.87015 6.79554 38053 ft 447 kts 227°
2026-04-22 10:26 41.82419 6.73954 38051 ft 447 kts 227°
2026-04-22 10:27 41.77818 6.68366 38055 ft 446 kts 227°
2026-04-22 10:27 41.73225 6.62789 38059 ft 445 kts 227°
2026-04-22 10:28 41.68668 6.57265 38051 ft 445 kts 227°
2026-04-22 10:28 41.64085 6.51715 38058 ft 444 kts 227°
2026-04-22 10:29 41.59504 6.46172 38054 ft 444 kts 227°
2026-04-22 10:29 41.54917 6.40635 38053 ft 444 kts 227°
2026-04-22 10:30 41.50331 6.35115 38050 ft 444 kts 227°
2026-04-22 10:30 41.45736 6.29607 38050 ft 444 kts 227°
2026-04-22 10:31 41.41146 6.24106 38042 ft 444 kts 226°
2026-04-22 10:31 41.36554 6.18615 38041 ft 444 kts 226°
2026-04-22 10:32 41.31958 6.13133 38040 ft 444 kts 226°
2026-04-22 10:32 41.27358 6.07652 38039 ft 444 kts 226°
2026-04-22 10:33 41.22792 6.02210 38042 ft 444 kts 226°
2026-04-22 10:33 41.18197 5.96749 38032 ft 444 kts 226°
2026-04-22 10:34 41.13588 5.91295 38031 ft 444 kts 226°
2026-04-22 10:34 41.08976 5.85846 38028 ft 444 kts 226°
2026-04-22 10:35 41.05033 5.79679 38026 ft 438 kts 236°
2026-04-22 10:35 41.01334 5.73275 38023 ft 438 kts 236°
2026-04-22 10:36 40.97643 5.66864 38025 ft 438 kts 236°
2026-04-22 10:36 40.93938 5.60462 38027 ft 438 kts 236°
2026-04-22 10:37 40.89000 5.51945 38033 ft 439 kts 236°
2026-04-22 10:38 40.85273 5.45547 38039 ft 439 kts 236°
2026-04-22 10:38 40.81545 5.39151 38041 ft 440 kts 236°
2026-04-22 10:39 40.77804 5.32763 38037 ft 440 kts 236°
2026-04-22 10:39 40.74059 5.26380 38037 ft 440 kts 236°
2026-04-22 10:40 40.70316 5.19997 38036 ft 440 kts 236°
2026-04-22 10:40 40.66571 5.13630 37846 ft 437 kts 235°
2026-04-22 10:40 40.64732 5.10513 36954 ft 437 kts 235°
2026-04-22 10:41 40.62867 5.07352 36272 ft 437 kts 235°
2026-04-22 10:41 40.60996 5.04179 36048 ft 440 kts 235°
2026-04-22 10:41 40.59120 5.00999 35997 ft 441 kts 235°
2026-04-22 10:42 40.55340 4.94610 36014 ft 443 kts 235°
2026-04-22 10:42 40.51550 4.88219 35975 ft 444 kts 235°
2026-04-22 10:42 40.49667 4.85054 35155 ft 439 kts 234°
2026-04-22 10:43 40.47779 4.81878 34088 ft 443 kts 234°
2026-04-22 10:43 40.45877 4.78682 32881 ft 445 kts 234°
2026-04-22 10:43 40.43960 4.75467 31635 ft 449 kts 234°
2026-04-22 10:43 40.42062 4.72196 30384 ft 452 kts 235°
2026-04-22 10:44 40.40200 4.68853 28933 ft 455 kts 236°
2026-04-22 10:44 40.38353 4.65456 27377 ft 459 kts 237°
2026-04-22 10:44 40.36500 4.62014 26542 ft 464 kts 237°
2026-04-22 10:44 40.34623 4.58538 26230 ft 469 kts 236°
2026-04-22 10:45 40.32719 4.55047 25931 ft 472 kts 236°
2026-04-22 10:45 40.30792 4.51557 25634 ft 473 kts 236°
2026-04-22 10:45 40.28855 4.48075 25342 ft 475 kts 236°
2026-04-22 10:45 40.26904 4.44581 25052 ft 476 kts 236°
2026-04-22 10:46 40.24948 4.41080 24762 ft 477 kts 236°
2026-04-22 10:46 40.22990 4.37569 24471 ft 478 kts 236°
2026-04-22 10:46 40.21035 4.34057 24199 ft 477 kts 236°
2026-04-22 10:46 40.19084 4.30556 23922 ft 475 kts 236°
2026-04-22 10:47 40.17138 4.27069 23646 ft 474 kts 236°
2026-04-22 10:47 40.15222 4.23640 23344 ft 472 kts 236°
2026-04-22 10:47 40.13285 4.20178 23012 ft 471 kts 236°
2026-04-22 10:47 40.11355 4.16733 22689 ft 469 kts 236°
2026-04-22 10:48 40.09431 4.13306 22361 ft 465 kts 235°
2026-04-22 10:48 40.07541 4.09947 22054 ft 455 kts 235°
2026-04-22 10:48 40.05672 4.06629 21743 ft 455 kts 235°
2026-04-22 10:48 40.03787 4.03280 21434 ft 459 kts 235°
2026-04-22 10:49 40.01895 3.99926 21126 ft 458 kts 235°
2026-04-22 10:49 40.00013 3.96591 20822 ft 456 kts 235°
2026-04-22 10:49 39.98138 3.93268 20546 ft 454 kts 235°
2026-04-22 10:49 39.96265 3.89950 20267 ft 454 kts 235°
2026-04-22 10:50 39.94397 3.86643 19998 ft 452 kts 235°
2026-04-22 10:50 39.92532 3.83349 19731 ft 451 kts 235°
2026-04-22 10:50 39.90677 3.80077 19460 ft 447 kts 235°
2026-04-22 10:50 39.89062 3.76645 19125 ft 444 kts 246°
2026-04-22 10:51 39.87986 3.72891 18629 ft 442 kts 251°
2026-04-22 10:51 39.86984 3.69128 18007 ft 438 kts 252°
2026-04-22 10:51 39.86001 3.65394 17344 ft 435 kts 252°
2026-04-22 10:51 39.85027 3.61690 16697 ft 431 kts 252°
2026-04-22 10:52 39.84058 3.58010 16061 ft 428 kts 252°
2026-04-22 10:52 39.83095 3.54360 15449 ft 425 kts 252°
2026-04-22 10:52 39.82137 3.50744 14853 ft 419 kts 252°
2026-04-22 10:52 39.81201 3.47217 14391 ft 408 kts 252°
2026-04-22 10:53 39.80280 3.43758 13783 ft 402 kts 252°
2026-04-22 10:53 39.79366 3.40338 13066 ft 399 kts 252°
2026-04-22 10:53 39.78456 3.36951 12342 ft 395 kts 251°
2026-04-22 10:53 39.77550 3.33592 11625 ft 393 kts 251°
2026-04-22 10:54 39.76652 3.30257 10941 ft 388 kts 251°
2026-04-22 10:54 39.75772 3.26977 9927 ft 382 kts 251°
2026-04-22 10:54 39.74902 3.23728 8784 ft 377 kts 251°
2026-04-22 10:54 39.74060 3.20591 7434 ft 371 kts 251°
2026-04-22 10:55 39.73212 3.17448 6051 ft 369 kts 250°
2026-04-22 10:55 39.72144 3.14396 5195 ft 370 kts 243°
2026-04-22 10:55 39.71166 3.11878 4525 ft 366 kts 243°
2026-04-22 10:55 39.70016 3.08954 3744 ft 361 kts 242°
2026-04-22 10:56 39.68873 3.06072 2997 ft 357 kts 242°
2026-04-22 10:56 39.67740 3.03224 2343 ft 352 kts 242°
2026-04-22 10:56 39.66657 3.00454 2098 ft 335 kts 245°
2026-04-22 10:56 39.65722 2.97814 2318 ft 308 kts 241°
2026-04-22 10:57 39.64682 2.95493 2457 ft 282 kts 237°
2026-04-22 10:57 39.63699 2.93469 2506 ft 249 kts 237°
2026-04-22 10:57 39.62830 2.91642 2510 ft 228 kts 237°
2026-04-22 10:57 39.62038 2.89957 2412 ft 212 kts 237°
2026-04-22 10:58 39.61280 2.88348 2184 ft 208 kts 237°
2026-04-22 10:58 39.60538 2.86770 1910 ft 200 kts 237°
2026-04-22 10:58 39.59906 2.85426 1724 ft 183 kts 237°
2026-04-22 10:58 39.59270 2.84075 1454 ft 168 kts 237°
2026-04-22 10:59 39.58675 2.82814 1247 ft 160 kts 237°
2026-04-22 10:59 39.58114 2.81625 1034 ft 151 kts 237°
2026-04-22 10:59 39.57581 2.80480 832 ft 146 kts 238°
2026-04-22 10:59 39.57063 2.79382 630 ft 143 kts 238°
2026-04-22 11:00 39.56545 2.78279 413 ft 140 kts 238°
2026-04-22 11:00 39.56036 2.77217 251 ft 139 kts 237°
2026-04-22 11:00 39.55538 2.76161 68 ft 139 kts 238°
2026-04-22 11:00 39.55079 2.75193 38 ft 102 kts 239°
2026-04-22 11:01 39.54860 2.74719 38 ft 35 kts 239°
2026-04-22 11:01 39.54808 2.74456 38 ft 19 kts 263°
2026-04-22 11:01 39.54803 2.74281 38 ft 14 kts 268°
2026-04-22 11:01 39.54803 2.74272 38 ft 0 kts 269°
2026-04-22 11:02 39.54803 2.74262 38 ft 4 kts 269°
2026-04-22 11:02 39.54802 2.74235 38 ft 3 kts 269°
2026-04-22 11:02 39.54801 2.74202 38 ft 5 kts 265°
2026-04-22 11:03 39.54778 2.74125 38 ft 13 kts 242°
2026-04-22 11:03 39.54731 2.74007 36 ft 16 kts 239°
2026-04-22 11:03 39.54668 2.73874 37 ft 18 kts 238°
2026-04-22 11:03 39.54608 2.73746 38 ft 9 kts 239°
2026-04-22 11:04 39.54585 2.73696 38 ft 7 kts 241°
2026-04-22 11:04 39.54600 2.73635 38 ft 9 kts 317°
2026-04-22 11:04 39.54625 2.73560 38 ft 9 kts 290°
2026-04-22 11:04 39.54670 2.73515 38 ft 9 kts 328°
2026-04-22 11:05 39.54713 2.73482 38 ft 5 kts 328°
2026-04-22 11:05 39.54718 2.73448 38 ft 6 kts 253°
2026-04-22 11:05 39.54697 2.73396 38 ft 3 kts 240°
2026-04-22 11:05 39.54695 2.73391 38 ft 0 kts 240°